Location: Kosice
(0.0000°N, 21.2500°E)
Time: 16:05:42
(UTC+02:00)

Daily predictions for brighter satellites

Satellite Brightness Start Highest point End
(mag) Time Altitude Azimuth Time Altitude Azimuth Time Altitude Azimuth
Radarsat Rocket 4.4 18:39:48 10° SSE 18:45:57 53° ENE 18:52:50 10° N
Cosmos 1818 3.6 18:47:20 10° NNW 18:52:44 86° WSW 18:58:06 10° SSE
CZ-4B R/B 3.7 18:52:52 10° S 18:57:09 62° WSW 19:01:33 10° NNW
YAOGAN 1 4.3 18:57:16 10° ESE 18:59:09 13° ENE 19:01:01 10° NE
Intelsat 5-3 Rocket 3.4 18:58:18 10° S 18:59:31 13° SSE 19:00:42 10° SE
SL-08 RB Rocket 3.9 19:00:39 10° S 19:05:06 76° WSW 19:09:36 10° NNW
Cosmos 2369 3.7 19:01:56 10° SSW 19:07:40 88° ESE 19:13:23 10° NNE
CZ-4B DEB 4.2 19:03:39 10° SSE 19:09:01 58° ENE 19:14:20 10° N
Cosmos 1980 Rocket 2.2 19:06:24 10° SSW 19:12:05 88° ESE 19:17:45 10° NNE
Cosmos 1850 Rocket 3.9 19:08:04 10° S 19:13:10 62° ESE 19:18:15 10° NNE
Cosmos 2278 4.0 19:11:44 10° S 19:17:07 43° ESE 19:22:29 10° NE
Cosmos 1733 3.2 19:13:42 10° S 19:17:25 53° E 19:21:06 10° NNE
Lacrosse 5 rocket 2.4 19:16:09 10° NW 19:19:33 39° WSW 19:22:55 10° S
CZ-4 R/B 4.3 19:15:58 10° SSE 19:20:05 71° ENE 19:24:10 10° N
Cosmos 405 Rocket 4.1 19:18:19 10° NNW 19:22:04 43° W 19:25:46 10° SSW
GPS 2-17 Rocket1 3.3 19:18:13 10° W 19:22:27 56° NNW 19:25:25 19° NE
SL-16 R/B 3.5 19:19:46 10° SSE 19:23:23 18° ESE 19:23:23 18° ESE
COBE Rocket 4.4 19:19:12 10° SE 19:23:55 37° E 19:28:33 10° NNE
Aurora 2 Rocket 4.3 19:22:02 10° W 19:25:26 22° SSW 19:28:14 10° SSE
Cosmos 1842 3.3 19:23:49 10° N 19:27:39 76° W 19:31:32 10° S
Meteor 2-15 4.4 19:21:50 10° N 19:27:55 74° E 19:34:04 10° S
SL-27 R/B 2.6 19:25:37 10° NNW 19:28:53 67° WSW 19:32:07 10° S
Cosmos 1726 2.4 19:29:28 10° SSE 19:32:50 39° E 19:33:18 37° ENE
Cosmos 2297 Rocket 3.8 19:29:51 10° NNE 19:31:29 15° NE 19:31:29 15° NE
Meteor 1-21 4.4 19:28:29 10° NNE 19:33:49 45° E 19:39:10 10° SSE
Cosmos 1707 2.6 19:32:41 10° N 19:36:24 57° E 19:40:10 10° SSE
ARIANE 5 R/B 2.9 19:32:06 10° W 19:36:59 81° N 19:38:13 38° ENE
ATLAS 2A CENTAUR R/B 1.6 19:34:38 10° NW 19:37:40 30° N 19:37:40 30° N
Cosmos 1741 Rocket 4.3 19:33:29 10° SSW 19:38:46 68° WNW 19:44:01 10° N
ARIANE 5 R/B 4.1 19:30:21 10° W 19:39:08 41° S 19:41:15 24° SE
HETE-2 4.5 19:35:05 10° W 19:39:17 88° S 19:40:32 45° E
Meteor 2-14 Rocket 4.3 19:34:11 10° S 19:40:17 68° E 19:46:17 10° N
Cosmos 1733 Rocket 3.6 19:38:30 10° SSW 19:42:48 60° W 19:47:07 10° N
Ariane H10 2.6 19:36:37 10° W 19:44:02 58° S 19:44:50 44° SE
OAO 3 Rocket 4.3 19:39:57 10° WNW 19:44:23 39° SW 19:47:28 17° SSE
CZ-4 R/B 3.8 19:48:20 11° NNE 19:48:20 11° NNE 19:48:32 10° NNE
Meteor 2-15 Rocket 4.3 19:41:12 10° N 19:47:20 83° E 19:53:29 10° S
SWIFT 4.2 19:46:36 10° SSW 19:49:20 18° SSE 19:49:20 18° SSE
Meteor 2-21 Rocket 4.5 19:44:37 10° S 19:50:34 53° E 19:56:28 10° NNE
Cosmos 1805 4.5 19:48:50 10° SSW 19:52:30 42° W 19:56:09 10° NNW
Ariane H10 3.9 19:45:48 10° W 19:53:14 35° SSW 19:54:01 31° SSE
NOAA 15 4.4 19:49:35 10° SSE 19:54:48 69° ENE 19:59:59 10° N
Nadezhda 4 Rocket 3.9 19:50:14 10° S 19:56:29 72° E 20:02:45 10° N
IRIDIUM 106 4.1 19:53:13 10° S 19:58:26 75° E 20:03:36 10° N
Okean O Rocket 1.9 20:00:00 50° NNE 20:00:00 50° NNE 20:03:17 10° N
CZ-4C R/B 3.4 19:56:33 10° N 20:04:53 50° ENE 20:07:02 42° ESE
BLOCK DM-SL R/B 3.4 20:04:22 10° W 20:04:48 14° W 20:04:48 14° W
Ariane H10-3 3.9 20:03:15 10° W 20:06:01 32° NW 20:06:01 32° NW
ATLAS 5 CENTAUR R/B 4.1 19:24:45 10° WSW 20:10:29 50° NNW 20:17:02 24° NNE
Meteor 2-16 Rocket 4.2 20:05:28 10° S 20:11:32 72° E 20:13:34 43° NNE
GPS 2-12 Rocket1 3.6 20:12:50 10° WNW 20:16:29 54° WSW 20:16:29 54° WSW
ARIANE 3 DEB 4.4 20:22:08 10° WSW 20:26:00 36° WSW 20:26:00 36° WSW
ATLAS 3B R/B 3.1 20:22:47 10° NNW 20:30:27 72° WSW 20:34:18 32° S
USA 267 3.2 20:40:13 78° W 20:40:13 78° W 20:46:23 10° NW
Cosmos 2322 Rocket 4.2 20:38:00 10° SSW 20:39:25 18° SSW 20:39:25 18° SSW
Mugunghwa Rocket 4.3 20:36:01 10° WNW 20:43:05 74° WNW 20:43:05 74° WNW
ARIANE 5 DEB (SYLDA) 4.1 20:36:23 10° W 21:03:32 79° SSW 21:03:32 79° SSW
SL-16 R/B 4.2 21:02:28 10° SW 21:05:22 24° WSW 21:05:22 24° WSW
